Wooster, OH

8:37 PM EST on December 06, 2019 (GMT -0500)
Wayne County

Weather History for KBJJ - October, 2019

Change the Weather History Date:

Thursday, October 31, 2019

  Actual Average Record
Temperature  
Mean Temperature 49 °F -  
Max Temperature 64 °F 54 °F 73 °F (2003)
Min Temperature 34 °F 35 °F 28 °F (2000)
Degree Days  
Heating Degree Days 16    
Moisture  
Dew Point 55 °F    
Average Humidity 96    
Maximum Humidity 100    
Minimum Humidity 79    
Precipitation  
Precipitation 1.09 in - - ()
Sea Level Pressure  
Sea Level Pressure 29.64 in    
Wind  
Wind Speed 7 mph (SSW)    
Max Wind Speed 26 mph    
Max Gust Speed 39 mph    
Visibility 5 miles    
Events Rain , Snow    
Averages and records for this station are not official NWS values.
T = Trace of Precipitation, MM = Missing Value Source: NWS Daily Summary

Daily Weather History Graph

Daily Weather History Graph

Search for Another Location

Airport or City:

Astronomy

Oct. 31, 2019 Rise Set
Actual Time 7:56 AM EDT 6:25 PM EDT
Civil Twilight 7:28 AM EDT 6:53 PM EDT
Nautical Twilight 6:55 AM EDT 7:25 PM EDT
Astronomical Twilight 6:23 AM EDT 7:57 PM EDT
Moon 11:44 AM EDT (10/31) 9:19 PM EDT (10/31)
Length of Visible Light 11h 25m
Length of Day
10h 28m
Waxing Crescent, 15% of the Moon is Illuminated
Oct 31
Waxing Crescent
Nov 4
First Quarter
Nov 12
Full
Nov 19
Last Quarter
Nov 26
New

Hourly Weather History & Observations

Time (EDT) Temp. Windchill Dew Point Humidity Pressure Visibility Wind Dir Wind Speed Gust Speed Precip Events Conditions
12:56 AM 59.0 °F - 59.0 °F 100% 29.84 in 9.0 mi SSW 5.8 mph - N/A   Overcast
1:18 AM 59.0 °F - 59.0 °F 100% 29.83 in 5.0 mi South 6.9 mph - N/A   Overcast
1:42 AM 59.0 °F - 59.0 °F 100% 29.83 in 2.0 mi SSW 5.8 mph - N/A   Overcast
1:56 AM 59.0 °F - 59.0 °F 100% 29.83 in 1.5 mi SSW 4.6 mph - N/A   Overcast
2:31 AM 57.9 °F - 57.9 °F 100% 29.80 in 2.0 mi South 4.6 mph - N/A   Overcast
2:53 AM 57.2 °F - 57.2 °F 100% 29.79 in 1.8 mi South 3.5 mph - N/A   Overcast
2:56 AM 57.9 °F - 57.9 °F 100% 29.79 in 1.8 mi South 4.6 mph - N/A   Overcast
3:09 AM 59.0 °F - 57.9 °F 96% 29.81 in 2.0 mi SW 5.8 mph - N/A   Overcast
3:35 AM 57.9 °F - 57.9 °F 100% 29.77 in 1.8 mi South 3.5 mph - N/A   Overcast
3:56 AM 57.9 °F - 57.9 °F 100% 29.77 in 1.8 mi South 4.6 mph - N/A   Overcast
4:19 AM 59.0 °F - 59.0 °F 100% 29.76 in 2.0 mi SSW 4.6 mph - N/A   Overcast
4:56 AM 59.0 °F - 59.0 °F 100% 29.73 in 2.5 mi SSE 5.8 mph - N/A   Overcast
5:07 AM 59.0 °F - 59.0 °F 100% 29.75 in 3.0 mi SSW 5.8 mph - N/A   Overcast
5:56 AM 59.0 °F - 59.0 °F 100% 29.73 in 5.0 mi South 4.6 mph - N/A   Overcast
6:56 AM 59.0 °F - 59.0 °F 100% 29.73 in 6.0 mi South 6.9 mph - 0.01 in Rain Light Rain
7:56 AM 59.0 °F - 59.0 °F 100% 29.68 in 4.0 mi SSW 3.5 mph - 0.01 in Rain Light Rain
8:33 AM 59.0 °F - 59.0 °F 100% 29.68 in 1.8 mi South 4.6 mph - 0.02 in Rain Light Rain
8:52 AM 60.8 °F - 60.8 °F 100% 29.66 in 3.0 mi SSE 5.8 mph - 0.04 in Rain Light Rain
8:56 AM 60.1 °F - 60.1 °F 100% 29.65 in 3.0 mi SSE 5.8 mph - 0.05 in Rain Rain
9:56 AM 60.1 °F - 60.1 °F 100% 29.62 in 2.0 mi SE 5.8 mph - 0.16 in Rain Rain
10:36 AM 61.0 °F - 61.0 °F 100% 29.60 in 3.0 mi Variable 4.6 mph - 0.17 in Rain Rain
10:39 AM 61.0 °F - 61.0 °F 100% 29.60 in 1.5 mi South 3.5 mph - 0.22 in Rain Rain
10:44 AM 61.0 °F - 61.0 °F 100% 29.60 in 0.8 mi South 5.8 mph - 0.28 in Rain Heavy Rain
10:52 AM 60.8 °F - 60.8 °F 100% 29.59 in 1.0 mi Calm Calm - 0.35 in Rain Heavy Rain
10:56 AM 61.0 °F - 61.0 °F 100% 29.58 in 1.2 mi Calm Calm - 0.36 in Rain Rain
11:10 AM 61.0 °F - 61.0 °F 100% 29.56 in 3.0 mi Calm Calm - 0.06 in Rain Rain
11:21 AM 61.0 °F - 61.0 °F 100% 29.56 in 2.5 mi Calm Calm - 0.09 in Rain Rain
11:27 AM 61.0 °F - 61.0 °F 100% 29.56 in 2.0 mi Calm Calm - 0.10 in Rain Rain
11:38 AM 62.1 °F - 61.0 °F 96% 29.54 in 4.0 mi East 3.5 mph - 0.11 in Rain Light Rain
11:56 AM 62.1 °F - 62.1 °F 100% 29.54 in 1.8 mi Calm Calm - 0.16 in Rain Rain
12:07 PM 62.1 °F - 62.1 °F 100% 29.52 in 3.0 mi ESE 3.5 mph - 0.02 in Rain Light Rain
12:22 PM 63.0 °F - 62.1 °F 97% 29.52 in 9.0 mi South 4.6 mph - 0.02 in Rain Light Rain
12:29 PM 63.0 °F - 63.0 °F 100% 29.51 in 8.0 mi SSW 4.6 mph - 0.03 in Rain Light Rain
12:46 PM 64.0 °F - 63.0 °F 96% 29.48 in 9.0 mi South 4.6 mph - 0.04 in Rain Light Rain
12:56 PM 64.0 °F - 63.0 °F 96% 29.47 in 10.0 mi SSW 6.9 mph - 0.04 in Rain Light Rain
1:05 PM 64.0 °F - 63.0 °F 96% 29.48 in 1.8 mi SW 6.9 mph - 0.06 in Rain Rain
1:15 PM 64.0 °F - 63.0 °F 96% 29.48 in 2.5 mi SW 6.9 mph - 0.07 in Rain Light Rain
1:22 PM 64.0 °F - 63.0 °F 96% 29.46 in 9.0 mi SW 6.9 mph - 0.07 in Rain Light Rain
1:30 PM 64.0 °F - 63.0 °F 96% 29.46 in 10.0 mi SW 5.8 mph - 0.08 in Rain Light Rain
1:56 PM 64.0 °F - 63.0 °F 96% 29.43 in 10.0 mi SW 6.9 mph - 0.08 in Rain Light Rain
2:11 PM 64.0 °F - 63.0 °F 96% 29.44 in 4.0 mi SW 8.1 mph - 0.02 in Rain Rain
2:22 PM 63.0 °F - 62.1 °F 97% 29.47 in 2.0 mi WSW 11.5 mph 18.4 mph 0.07 in Rain Heavy Rain
2:29 PM 62.1 °F - 60.1 °F 93% 29.46 in 1.2 mi WSW 16.1 mph 33.4 mph 0.13 in Rain Heavy Rain
2:38 PM 61.0 °F - 59.0 °F 93% 29.46 in 4.0 mi WSW 18.4 mph 28.8 mph 0.16 in Rain Rain
2:56 PM 57.0 °F - 55.0 °F 93% 29.49 in 4.0 mi West 21.9 mph 36.8 mph 0.20 in Rain Light Rain
3:07 PM 55.9 °F - 55.0 °F 97% 29.49 in 10.0 mi West 17.3 mph 25.3 mph 0.00 in Rain Light Rain
3:56 PM 53.1 °F - 51.1 °F 93% 29.52 in 7.0 mi West 21.9 mph 31.1 mph 0.01 in Rain Light Rain
4:56 PM 48.9 °F - 45.0 °F 86% 29.57 in 10.0 mi WSW 16.1 mph 31.1 mph 0.01 in   Overcast
5:13 PM 48.0 °F - 44.1 °F 86% 29.58 in 10.0 mi WSW 23.0 mph 32.2 mph 0.00 in Rain Light Rain
5:21 PM 46.9 °F - 43.0 °F 86% 29.59 in 10.0 mi WSW 18.4 mph 32.2 mph 0.00 in   Overcast
5:56 PM 45.0 °F 37.1 °F 39.9 °F 82% 29.63 in 10.0 mi West 19.6 mph 35.7 mph 0.00 in Rain Light Rain
6:56 PM 39.9 °F 29.0 °F 35.1 °F 83% 29.68 in 10.0 mi WSW 26.5 mph 39.1 mph 0.00 in   Overcast
7:56 PM 37.0 °F 25.9 °F 30.9 °F 79% 29.74 in 9.0 mi WSW 23.0 mph 38.0 mph 0.00 in Snow Light Snow
8:56 PM 35.1 °F 24.8 °F 30.0 °F 82% 29.79 in 10.0 mi WSW 17.3 mph 36.8 mph 0.00 in   Overcast
9:56 PM 34.0 °F 23.0 °F 30.9 °F 89% 29.83 in 4.0 mi WSW 18.4 mph 29.9 mph 0.00 in Snow Light Snow
10:37 PM 34.0 °F 23.8 °F 30.9 °F 89% 29.86 in 3.0 mi WSW 16.1 mph 32.2 mph 0.00 in Snow Light Snow
10:56 PM 34.0 °F 22.7 °F 32.0 °F 92% 29.89 in 8.0 mi West 19.6 mph 28.8 mph 0.00 in Snow Light Snow
11:56 PM 35.1 °F 24.1 °F 32.0 °F 89% 29.94 in 7.0 mi West 19.6 mph 33.4 mph 0.00 in Snow Light Snow